Strona główna
METAR-TAF:

METAR-TAF

Lotnisko :

Otjiwarongo, Namibia

Szerokość geograficzna: 20-25-50S, Długość geograficzna: 16-39-45E, wysokość: 1475 m

Aktualna obserwacja pogody

Raport powstał 56 minut temu, godzina 01:00 UTC
Wiatr 1 kt od południowo-południowy wschód
Temperatura 20°C
Wilgotność 94%
Ciśnienie 1018 hPa

METAR: FYOW 230100Z AUTO 16001KT //// // ////// 20/19 Q1018

czas: 03:56 (01:56 UTC)


TAF: brakujący

Obserwacja i prognoza pogody dla ponad 4000 lotnisk (raport METAR i TAF).

Dostępne stacje oznaczono żółtymi i czerwonymi punktami na mapie.

Najedź kursorem aby zobaczyć nazwę stacji.

Kliknij aby zobaczyć obserwacje i prognozy pogody.

Aby zmienić mapę: kliknij na zielony przycisk z czarnym krzyżykiem, aby powiększyć; na zielony przycisk z myślnikiem, aby pomniejszyć; na zielone strzałki, aby przejść do map sąsiednich.


METAR-TAF: